| time (UTC) | temp C | wind direction | speed KPH | gust KPH | rain 1hr cm | rain 24hr cm | rain mn cm | humidity % | barometer mb |
| 20260505171520 | 26 | 215 | 8.0 | 19.3 | 0.00 | 0.00 | 0.00 | 87 | 1009.0 |
| 20260505170953 | 26 | 179 | 8.0 | 17.7 | 0.00 | 0.00 | 0.00 | 87 | 1009.2 |
| 20260505170450 | 26 | 208 | 8.0 | 17.7 | 0.00 | 0.00 | 0.00 | 87 | 1009.2 |
| 20260505165923 | 26 | 218 | 8.0 | 16.1 | 0.00 | 0.00 | 0.00 | 88 | 1009.3 |
| 20260505165629 | 26 | 191 | 9.7 | 19.3 | 0.00 | 0.00 | 0.00 | 88 | 1009.3 |
| 20260505164829 | 26 | 190 | 9.7 | 19.3 | 0.00 | 0.00 | 0.00 | 88 | 1009.3 |
| 20260505164327 | 26 | 179 | 9.7 | 20.9 | 0.00 | 0.00 | 0.00 | 88 | 1009.3 |
| 20260505163759 | 26 | 216 | 12.9 | 20.9 | 0.00 | 0.00 | 0.00 | 88 | 1009.2 |
| 20260505163256 | 26 | 205 | 11.3 | 19.3 | 0.00 | 0.00 | 0.00 | 88 | 1009.3 |
| 20260505162730 | 26 | 141 | 8.0 | 17.7 | 0.00 | 0.00 | 0.00 | 88 | 1009.3 |
| 20260505162228 | 26 | 158 | 8.0 | 24.1 | 0.00 | 0.00 | 0.00 | 88 | 1009.3 |
| 20260505161728 | 26 | 198 | 9.7 | 19.3 | 0.00 | 0.00 | 0.00 | 88 | 1009.1 |
| 20260505161724 | 26 | 196 | 8.0 | 24.1 | 0.00 | 0.00 | 0.00 | 88 | 1009.2 |
| 20260505160715 | 26 | 168 | 9.7 | 22.5 | 0.00 | 0.00 | 0.00 | 88 | 1009.1 |
| 20260505160213 | 26 | 189 | 9.7 | 24.1 | 0.00 | 0.00 | 0.00 | 88 | 1009.1 |
| 20260505153044 | 26 | 161 | 8.0 | 19.3 | 0.00 | 0.00 | 0.00 | 89 | 1008.9 |
| 20260505152540 | 25 | 185 | 9.7 | 19.3 | 0.00 | 0.00 | 0.00 | 89 | 1008.9 |
| 20260505152038 | 25 | 189 | 9.7 | 19.3 | 0.00 | 0.00 | 0.00 | 89 | 1008.9 |
| 20260505151534 | 25 | 190 | 11.3 | 19.3 | 0.00 | 0.00 | 0.00 | 89 | 1008.8 |
| 20260505151007 | 25 | 195 | 11.3 | 20.9 | 0.00 | 0.00 | 0.00 | 89 | 1008.9 |
| 20260505150504 | 25 | 228 | 11.3 | 20.9 | 0.00 | 0.00 | 0.00 | 89 | 1008.9 |
| 20260505140648 | 24 | 177 | 11.3 | 20.9 | 0.00 | 0.00 | 0.00 | 92 | 1008.9 |
| 20260505140121 | 24 | 218 | 9.7 | 20.9 | 0.00 | 0.00 | 0.00 | 92 | 1009.0 |
| 20260505124918 | 23 | 177 | 9.7 | 22.5 | 0.00 | 0.00 | 0.00 | 94 | 1008.5 |
| 20260505124418 | 23 | 189 | 8.0 | 16.1 | 0.00 | 0.00 | 0.00 | 94 | 1008.5 |
| 20260505123919 | 23 | 202 | 8.0 | 17.7 | 0.00 | 0.00 | 0.00 | 94 | 1008.5 |
| 20260505123359 | 23 | 133 | 6.4 | 17.7 | 0.00 | 0.00 | 0.00 | 94 | 1008.5 |
| 20260505122838 | 23 | 147 | 8.0 | 16.1 | 0.00 | 0.00 | 0.00 | 94 | 1008.5 |
| 20260505122542 | 23 | 119 | 6.4 | 16.1 | 0.00 | 0.00 | 0.00 | 94 | 1008.4 |
| 20260505121810 | 23 | 204 | 6.4 | 14.5 | 0.00 | 0.00 | 0.00 | 94 | 1008.3 |
| 20260505121307 | 23 | 176 | 8.0 | 14.5 | 0.00 | 0.00 | 0.00 | 94 | 1008.0 |
| 20260505120740 | 23 | 195 | 8.0 | 19.3 | 0.00 | 0.00 | 0.00 | 94 | 1008.0 |
| 20260505120511 | 23 | 196 | 8.0 | 19.3 | 0.00 | 0.00 | 0.00 | 94 | 1007.9 |
| 20260505115723 | 23 | 196 | 8.0 | 16.1 | 0.00 | 0.00 | 0.00 | 94 | 1008.0 |
| 20260505115225 | 23 | 166 | 8.0 | 16.1 | 0.00 | 0.00 | 0.00 | 94 | 1008.1 |
| 20260505114724 | 23 | 131 | 6.4 | 14.5 | 0.00 | 0.00 | 0.00 | 94 | 1008.4 |
| 20260505114426 | 23 | 181 | 6.4 | 14.5 | 0.00 | 0.00 | 0.00 | 94 | 1008.4 |
| 20260505113629 | 23 | 197 | 6.4 | 14.5 | 0.00 | 0.00 | 0.00 | 94 | 1008.4 |
| 20260505113125 | 23 | 195 | 6.4 | 16.1 | 0.00 | 0.00 | 0.00 | 94 | 1008.2 |
| 20260505112559 | 23 | 135 | 8.0 | 16.1 | 0.00 | 0.00 | 0.00 | 94 | 1008.1 |
| 20260505112056 | 23 | 194 | 8.0 | 16.1 | 0.00 | 0.00 | 0.00 | 94 | 1008.2 |
| 20260505111554 | 23 | 175 | 6.4 | 16.1 | 0.00 | 0.00 | 0.00 | 94 | 1008.1 |
| 20260505111258 | 23 | 201 | 6.4 | 16.1 | 0.00 | 0.00 | 0.00 | 94 | 1008.0 |
| 20260505110523 | 23 | 161 | 6.4 | 14.5 | 0.00 | 0.00 | 0.00 | 94 | 1008.0 |
| 20260505101829 | 22 | 137 | 8.0 | 17.7 | 0.00 | 0.00 | 0.00 | 93 | 1008.1 |
| 20260505101326 | 22 | 166 | 6.4 | 17.7 | 0.00 | 0.00 | 0.00 | 93 | 1008.3 |
| 20260505100758 | 22 | 188 | 6.4 | 12.9 | 0.00 | 0.00 | 0.00 | 93 | 1008.4 |
| 20260505100256 | 22 | 191 | 8.0 | 16.1 | 0.00 | 0.00 | 0.00 | 93 | 1008.4 |
| 20260505095728 | 22 | 193 | 6.4 | 16.1 | 0.00 | 0.00 | 0.00 | 94 | 1008.2 |
| 20260505095225 | 22 | 201 | 6.4 | 20.9 | 0.00 | 0.00 | 0.00 | 93 | 1008.0 |
| 20260505094700 | 22 | 175 | 6.4 | 20.9 | 0.00 | 0.00 | 0.00 | 94 | 1008.1 |
| 20260505094132 | 22 | 184 | 6.4 | 14.5 | 0.00 | 0.00 | 0.00 | 93 | 1008.3 |
| 20260505093900 | 22 | 210 | 6.4 | 11.3 | 0.00 | 0.00 | 0.00 | 93 | 1008.2 |
| 20260505093122 | 22 | 161 | 6.4 | 16.1 | 0.00 | 0.00 | 0.00 | 93 | 1008.2 |
| 20260505092554 | 22 | 167 | 6.4 | 16.1 | 0.00 | 0.00 | 0.00 | 93 | 1008.4 |
| 20260505092052 | 22 | 193 | 4.8 | 11.3 | 0.00 | 0.00 | 0.00 | 93 | 1008.4 |
| 20260505091524 | 22 | 156 | 6.4 | 14.5 | 0.00 | 0.00 | 0.00 | 93 | 1008.4 |
| 20260505091253 | 22 | 205 | 6.4 | 12.9 | 0.00 | 0.00 | 0.00 | 93 | 1008.5 |
| 20260505090726 | 22 | 228 | 6.4 | 12.9 | 0.00 | 0.00 | 0.00 | 93 | 1008.5 |
| 20260505085952 | 22 | 198 | 6.4 | 16.1 | 0.00 | 0.00 | 0.00 | 93 | 1008.6 |
| 20260505085424 | 22 | 148 | 8.0 | 16.1 | 0.00 | 0.00 | 0.00 | 93 | 1008.4 |
| 20260505084922 | 22 | 153 | 6.4 | 11.3 | 0.00 | 0.00 | 0.00 | 93 | 1008.4 |
| 20260505084418 | 22 | 199 | 6.4 | 11.3 | 0.00 | 0.00 | 0.00 | 93 | 1008.5 |
| 20260505084148 | 22 | 164 | 4.8 | 11.3 | 0.00 | 0.00 | 0.00 | 93 | 1008.5 |
| 20260505083349 | 22 | 162 | 4.8 | 14.5 | 0.00 | 0.00 | 0.00 | 93 | 1008.5 |
| 20260505082823 | 22 | 184 | 6.4 | 14.5 | 0.00 | 0.00 | 0.00 | 93 | 1008.6 |
| 20260505082321 | 22 | 190 | 6.4 | 19.3 | 0.00 | 0.00 | 0.00 | 93 | 1008.7 |
| 20260505081808 | 22 | 176 | 6.4 | 19.3 | 0.00 | 0.00 | 0.00 | 92 | 1008.8 |
| 20260505081307 | 22 | 177 | 6.4 | 16.1 | 0.00 | 0.00 | 0.00 | 92 | 1008.8 |
| 20260505080808 | 22 | 158 | 6.4 | 16.1 | 0.00 | 0.00 | 0.00 | 92 | 1008.8 |
| 20260505080308 | 22 | 144 | 8.0 | 16.1 | 0.00 | 0.00 | 0.00 | 92 | 1008.8 |
| 20260505075744 | 22 | 193 | 8.0 | 16.1 | 0.00 | 0.00 | 0.00 | 92 | 1008.8 |
| 20260505075246 | 22 | 164 | 8.0 | 14.5 | 0.00 | 0.00 | 0.00 | 92 | 1008.9 |
| 20260505074958 | 22 | 162 | 8.0 | 17.7 | 0.00 | 0.00 | 0.00 | 92 | 1008.8 |
| 20260505074229 | 22 | 160 | 8.0 | 17.7 | 0.00 | 0.00 | 0.00 | 92 | 1008.9 |
| 20260505073720 | 22 | 188 | 8.0 | 19.3 | 0.00 | 0.00 | 0.00 | 92 | 1008.9 |
| 20260505073450 | 22 | 196 | 8.0 | 19.3 | 0.00 | 0.00 | 0.00 | 91 | 1009.0 |
| 20260505072934 | 22 | 179 | 8.0 | 14.5 | 0.00 | 0.00 | 0.00 | 91 | 1009.0 |
| 20260505072159 | 22 | 171 | 6.4 | 19.3 | 0.00 | 0.00 | 0.00 | 91 | 1009.1 |
| 20260505071658 | 22 | 195 | 6.4 | 19.3 | 0.00 | 0.00 | 0.00 | 91 | 1009.1 |
| 20260505071432 | 22 | 204 | 6.4 | 14.5 | 0.00 | 0.00 | 0.00 | 91 | 1009.1 |
| 20260505070642 | 22 | 149 | 6.4 | 17.7 | 0.00 | 0.00 | 0.00 | 91 | 1009.2 |
| 20260505070144 | 22 | 185 | 8.0 | 17.7 | 0.00 | 0.00 | 0.00 | 91 | 1009.2 |
| 20260505065858 | 22 | 166 | 9.7 | 16.1 | 0.00 | 0.00 | 0.00 | 90 | 1009.2 |
| 20260505065126 | 22 | 191 | 9.7 | 16.1 | 0.00 | 0.00 | 0.00 | 90 | 1009.3 |
| 20260505064856 | 22 | 193 | 8.0 | 17.7 | 0.00 | 0.00 | 0.00 | 90 | 1009.4 |
| 20260505064103 | 22 | 176 | 8.0 | 17.7 | 0.00 | 0.00 | 0.00 | 90 | 1009.5 |
| 20260505063548 | 22 | 165 | 8.0 | 16.1 | 0.00 | 0.00 | 0.00 | 90 | 1009.6 |
| 20260505063041 | 22 | 197 | 8.0 | 16.1 | 0.00 | 0.00 | 0.00 | 90 | 1009.8 |
| 20260505062521 | 22 | 171 | 8.0 | 19.3 | 0.00 | 0.00 | 0.00 | 89 | 1009.7 |
| 20260505062224 | 22 | 191 | 8.0 | 19.3 | 0.00 | 0.00 | 0.00 | 89 | 1009.9 |
| 20260505061430 | 22 | 181 | 8.0 | 19.3 | 0.00 | 0.00 | 0.00 | 89 | 1010.0 |
| 20260505060933 | 22 | 202 | 8.0 | 19.3 | 0.00 | 0.00 | 0.00 | 89 | 1010.0 |
| 20260505060401 | 22 | 228 | 8.0 | 17.7 | 0.00 | 0.00 | 0.00 | 89 | 1009.9 |
| 20260505055859 | 22 | 192 | 8.0 | 17.7 | 0.00 | 0.00 | 0.00 | 89 | 1010.0 |
| 20260505055356 | 22 | 183 | 8.0 | 19.3 | 0.00 | 0.00 | 0.00 | 88 | 1009.9 |
| 20260505055059 | 22 | 165 | 8.0 | 19.3 | 0.00 | 0.00 | 0.00 | 88 | 1009.9 |
| 20260505054311 | 22 | 181 | 8.0 | 16.1 | 0.00 | 0.00 | 0.00 | 88 | 1010.1 |
| 20260505054007 | 22 | 176 | 6.4 | 14.5 | 0.00 | 0.00 | 0.00 | 88 | 1010.1 |
| 20260505053209 | 22 | 122 | 6.4 | 11.3 | 0.00 | 0.00 | 0.00 | 88 | 1010.2 |
| 20260505052706 | 22 | 179 | 6.4 | 12.9 | 0.00 | 0.00 | 0.00 | 88 | 1010.3 |
| 20260505052154 | 22 | 206 | 6.4 | 16.1 | 0.00 | 0.00 | 0.00 | 88 | 1010.3 |
| 20260505051627 | 22 | 147 | 6.4 | 16.1 | 0.00 | 0.00 | 0.00 | 87 | 1010.2 |
| 20260505051126 | 22 | 187 | 8.0 | 17.7 | 0.00 | 0.00 | 0.00 | 88 | 1010.2 |
| 20260505050832 | 22 | 201 | 4.8 | 17.7 | 0.00 | 0.00 | 0.00 | 87 | 1010.2 |
| 20260505041340 | 22 | 161 | 6.4 | 12.9 | 0.00 | 0.00 | 0.00 | 85 | 1010.4 |
| 20260505040821 | 22 | 177 | 6.4 | 12.9 | 0.00 | 0.00 | 0.00 | 85 | 1010.6 |
| 20260505040321 | 22 | 152 | 6.4 | 12.9 | 0.00 | 0.00 | 0.00 | 85 | 1010.7 |
| 20260505035818 | 22 | 179 | 8.0 | 17.7 | 0.00 | 0.00 | 0.00 | 85 | 1010.6 |
| 20260505035314 | 22 | 171 | 8.0 | 17.7 | 0.00 | 0.00 | 0.00 | 84 | 1010.6 |
| 20260505034801 | 23 | 154 | 6.4 | 12.9 | 0.00 | 0.00 | 0.00 | 84 | 1010.8 |
| 20260505034241 | 23 | 158 | 8.0 | 16.1 | 0.00 | 0.00 | 0.00 | 84 | 1010.8 |
| 20260505033951 | 23 | 162 | 8.0 | 19.3 | 0.00 | 0.00 | 0.00 | 84 | 1010.8 |
| 20260505033156 | 23 | 179 | 8.0 | 22.5 | 0.00 | 0.00 | 0.00 | 84 | 1010.8 |
| 20260505032637 | 23 | 192 | 9.7 | 22.5 | 0.00 | 0.00 | 0.00 | 83 | 1010.7 |
| 20260505032112 | 23 | 177 | 9.7 | 20.9 | 0.00 | 0.00 | 0.00 | 83 | 1010.6 |
| 20260505031634 | 23 | 167 | 9.7 | 20.9 | 0.00 | 0.00 | 0.00 | 83 | 1010.6 |
| 20260505030525 | 23 | 169 | 11.3 | 24.1 | 0.00 | 0.00 | 0.00 | 82 | 1010.7 |
| 20260505030000 | 23 | 194 | 9.7 | 24.1 | 0.00 | 0.00 | 0.00 | 82 | 1010.7 |
| 20260505025438 | 23 | 154 | 8.0 | 19.3 | 0.00 | 0.00 | 0.00 | 82 | 1010.7 |
| 20260505025203 | 23 | 152 | 8.0 | 19.3 | 0.00 | 0.00 | 0.00 | 82 | 1010.8 |
| 20260505024406 | 23 | 160 | 9.7 | 22.5 | 0.00 | 0.00 | 0.00 | 82 | 1010.6 |
| 20260505023840 | 23 | 165 | 8.0 | 22.5 | 0.00 | 0.00 | 0.00 | 82 | 1010.7 |
| 20260505023316 | 23 | 174 | 9.7 | 22.5 | 0.00 | 0.00 | 0.00 | 82 | 1010.6 |
| 20260505023018 | 23 | 218 | 9.7 | 22.5 | 0.00 | 0.00 | 0.00 | 82 | 1010.6 |
| 20260505022244 | 23 | 135 | 9.7 | 20.9 | 0.00 | 0.00 | 0.00 | 82 | 1010.6 |
| 20260505021718 | 23 | 160 | 9.7 | 22.5 | 0.00 | 0.00 | 0.00 | 82 | 1010.5 |
| 20260505021152 | 23 | 139 | 9.7 | 22.5 | 0.00 | 0.00 | 0.00 | 82 | 1010.5 |
| 20260505020649 | 23 | 108 | 9.7 | 19.3 | 0.00 | 0.00 | 0.00 | 82 | 1010.5 |
| 20260505020125 | 23 | 176 | 11.3 | 24.1 | 0.00 | 0.00 | 0.00 | 82 | 1010.5 |
| 20260505015618 | 23 | 200 | 11.3 | 24.1 | 0.00 | 0.00 | 0.00 | 82 | 1010.4 |
| 20260505015053 | 23 | 122 | 8.0 | 22.5 | 0.00 | 0.00 | 0.00 | 81 | 1010.4 |
| 20260505014525 | 23 | 148 | 8.0 | 17.7 | 0.00 | 0.00 | 0.00 | 81 | 1010.4 |
| 20260505014023 | 23 | 191 | 9.7 | 19.3 | 0.00 | 0.00 | 0.00 | 81 | 1010.3 |
| 20260505013455 | 23 | 135 | 12.9 | 29.0 | 0.00 | 0.00 | 0.00 | 80 | 1010.3 |
| 20260505012952 | 23 | 124 | 12.9 | 29.0 | 0.00 | 0.00 | 0.00 | 80 | 1010.2 |
| 20260505012427 | 23 | 188 | 9.7 | 20.9 | 0.00 | 0.00 | 0.00 | 80 | 1010.1 |
| 20260505011912 | 23 | 179 | 9.7 | 20.9 | 0.00 | 0.00 | 0.00 | 80 | 1010.1 |
| 20260505011400 | 24 | 109 | 11.3 | 24.1 | 0.00 | 0.00 | 0.00 | 79 | 1010.2 |
| 20260505011355 | 23 | 142 | 12.9 | 24.1 | 0.00 | 0.00 | 0.00 | 79 | 1010.2 |
| 20260505010325 | 24 | 130 | 11.3 | 27.4 | 0.00 | 0.00 | 0.00 | 79 | 1010.1 |
| 20260505005822 | 24 | 164 | 11.3 | 27.4 | 0.00 | 0.00 | 0.00 | 79 | 1010.0 |
| 20260505005319 | 24 | 156 | 9.7 | 27.4 | 0.00 | 0.00 | 0.00 | 78 | 1010.0 |
| 20260505004817 | 24 | 195 | 11.3 | 27.4 | 0.00 | 0.00 | 0.00 | 78 | 1010.0 |
| 20260505004249 | 24 | 179 | 11.3 | 22.5 | 0.00 | 0.00 | 0.00 | 78 | 1009.8 |
| 20260505003746 | 24 | 183 | 12.9 | 29.0 | 0.00 | 0.00 | 0.00 | 78 | 1009.9 |
| 20260505003223 | 25 | 157 | 12.9 | 29.0 | 0.00 | 0.00 | 0.00 | 77 | 1009.9 |
| 20260505002716 | 25 | 97 | 11.3 | 22.5 | 0.00 | 0.00 | 0.00 | 77 | 1010.0 |
| 20260505002149 | 25 | 157 | 9.7 | 22.5 | 0.00 | 0.00 | 0.00 | 76 | 1009.9 |
| 20260505001646 | 25 | 163 | 8.0 | 19.3 | 0.00 | 0.00 | 0.00 | 76 | 1009.9 |
| 20260505001128 | 25 | 171 | 9.7 | 19.3 | 0.00 | 0.00 | 0.00 | 76 | 1010.0 |
| 20260505000622 | 25 | 186 | 9.7 | 19.3 | 0.00 | 0.00 | 0.00 | 76 | 1009.9 |
| 20260505000345 | 25 | 131 | 8.0 | 22.5 | 0.00 | 0.00 | 0.00 | 76 | 1009.9 |
| 20260504235547 | 25 | 197 | 8.0 | 22.5 | 0.00 | 0.00 | 0.00 | 76 | 1010.1 |
| 20260504235045 | 25 | 142 | 9.7 | 25.7 | 0.00 | 0.00 | 0.00 | 76 | 1010.0 |
| 20260504234517 | 25 | 160 | 11.3 | 25.7 | 0.00 | 0.00 | 0.00 | 75 | 1010.2 |
| 20260504234015 | 25 | 165 | 11.3 | 24.1 | 0.00 | 0.00 | 0.00 | 75 | 1010.3 |
| 20260504233511 | 25 | 163 | 11.3 | 24.1 | 0.00 | 0.00 | 0.00 | 75 | 1010.4 |
| 20260504233011 | 25 | 151 | 11.3 | 24.1 | 0.00 | 0.00 | 0.00 | 75 | 1010.2 |
| 20260504232441 | 25 | 166 | 12.9 | 25.7 | 0.00 | 0.00 | 0.00 | 74 | 1010.3 |
| 20260504231942 | 25 | 183 | 11.3 | 22.5 | 0.00 | 0.00 | 0.00 | 74 | 1010.3 |
| 20260504231416 | 26 | 148 | 11.3 | 27.4 | 0.00 | 0.00 | 0.00 | 73 | 1010.3 |
| 20260504230908 | 26 | 168 | 9.7 | 27.4 | 0.00 | 0.00 | 0.00 | 73 | 1010.4 |
| 20260504230615 | 26 | 153 | 11.3 | 29.0 | 0.00 | 0.00 | 0.00 | 74 | 1010.5 |
| 20260504225842 | 26 | 148 | 12.9 | 29.0 | 0.00 | 0.00 | 0.00 | 74 | 1010.5 |
| 20260504225317 | 26 | 182 | 11.3 | 27.4 | 0.00 | 0.00 | 0.00 | 74 | 1010.5 |
| 20260504225024 | 26 | 122 | 12.9 | 27.4 | 0.00 | 0.00 | 0.00 | 74 | 1010.7 |
| 20260504224226 | 26 | 120 | 12.9 | 25.7 | 0.00 | 0.00 | 0.00 | 73 | 1010.6 |
| 20260504223715 | 26 | 125 | 14.5 | 25.7 | 0.00 | 0.00 | 0.00 | 73 | 1010.7 |
| 20260504223210 | 26 | 177 | 14.5 | 30.6 | 0.00 | 0.00 | 0.00 | 72 | 1010.6 |
| 20260504222707 | 26 | 172 | 12.9 | 30.6 | 0.00 | 0.00 | 0.00 | 72 | 1010.7 |
| 20260504222210 | 26 | 132 | 11.3 | 24.1 | 0.00 | 0.00 | 0.00 | 71 | 1010.9 |
| 20260504221708 | 26 | 159 | 9.7 | 22.5 | 0.00 | 0.00 | 0.00 | 71 | 1010.9 |
| 20260504221152 | 26 | 190 | 9.7 | 22.5 | 0.00 | 0.00 | 0.00 | 70 | 1010.9 |
| 20260504220651 | 26 | 191 | 11.3 | 27.4 | 0.00 | 0.00 | 0.00 | 71 | 1011.0 |
| 20260504220136 | 26 | 131 | 11.3 | 27.4 | 0.00 | 0.00 | 0.00 | 70 | 1011.0 |
| 20260504215625 | 26 | 145 | 11.3 | 25.7 | 0.00 | 0.00 | 0.00 | 69 | 1011.1 |
| 20260504215124 | 26 | 109 | 12.9 | 25.7 | 0.00 | 0.00 | 0.00 | 69 | 1011.1 |
| 20260504214624 | 26 | 124 | 12.9 | 22.5 | 0.00 | 0.00 | 0.00 | 68 | 1011.0 |
| 20260504214125 | 27 | 195 | 11.3 | 24.1 | 0.00 | 0.00 | 0.00 | 68 | 1011.1 |
| 20260504213607 | 27 | 170 | 11.3 | 22.5 | 0.00 | 0.00 | 0.00 | 67 | 1011.3 |
| 20260504213103 | 27 | 231 | 9.7 | 22.5 | 0.00 | 0.00 | 0.00 | 67 | 1011.2 |
| 20260504212620 | 27 | 216 | 11.3 | 19.3 | 0.00 | 0.00 | 0.00 | 66 | 1011.2 |
| 20260504212042 | 27 | 158 | 11.3 | 20.9 | 0.00 | 0.00 | 0.00 | 66 | 1011.3 |
| 20260504211514 | 27 | 145 | 9.7 | 20.9 | 0.00 | 0.00 | 0.00 | 66 | 1011.4 |
| 20260504210948 | 27 | 217 | 8.0 | 20.9 | 0.00 | 0.00 | 0.00 | 65 | 1011.4 |
| 20260504210700 | 27 | 125 | 8.0 | 19.3 | 0.00 | 0.00 | 0.00 | 64 | 1011.4 |
| 20260504205923 | 27 | 156 | 8.0 | 19.3 | 0.00 | 0.00 | 0.00 | 63 | 1011.6 |
| 20260504205358 | 27 | 55 | 8.0 | 16.1 | 0.00 | 0.00 | 0.00 | 65 | 1011.6 |
| 20260504204831 | 27 | 145 | 8.0 | 22.5 | 0.00 | 0.00 | 0.00 | 64 | 1011.7 |
| 20260504204306 | 27 | 204 | 9.7 | 22.5 | 0.00 | 0.00 | 0.00 | 64 | 1011.8 |
| 20260504203738 | 27 | 108 | 8.0 | 20.9 | 0.00 | 0.00 | 0.00 | 64 | 1011.7 |
| 20260504203235 | 28 | 193 | 6.4 | 20.9 | 0.00 | 0.00 | 0.00 | 63 | 1011.8 |
| 20260504202738 | 27 | 191 | 8.0 | 17.7 | 0.00 | 0.00 | 0.00 | 64 | 1011.9 |
| 20260504202229 | 27 | 185 | 9.7 | 24.1 | 0.00 | 0.00 | 0.00 | 63 | 1011.9 |
| 20260504201705 | 27 | 195 | 8.0 | 24.1 | 0.00 | 0.00 | 0.00 | 64 | 1012.1 |
| 20260504201201 | 27 | 187 | 9.7 | 19.3 | 0.00 | 0.00 | 0.00 | 64 | 1012.2 |
| 20260504200657 | 27 | 235 | 9.7 | 19.3 | 0.00 | 0.00 | 0.00 | 63 | 1012.4 |
| 20260504200132 | 28 | 219 | 6.4 | 14.5 | 0.00 | 0.00 | 0.00 | 62 | 1012.3 |
| 20260504195604 | 28 | 201 | 4.8 | 12.9 | 0.00 | 0.00 | 0.00 | 62 | 1012.4 |
| 20260504195101 | 28 | 179 | 6.4 | 20.9 | 0.00 | 0.00 | 0.00 | 64 | 1012.5 |
| 20260504194535 | 28 | 205 | 9.7 | 20.9 | 0.00 | 0.00 | 0.00 | 62 | 1012.6 |
| 20260504194008 | 28 | 116 | 9.7 | 19.3 | 0.00 | 0.00 | 0.00 | 62 | 1012.7 |
| 20260504193506 | 28 | 246 | 9.7 | 22.5 | 0.00 | 0.00 | 0.00 | 62 | 1012.7 |
| 20260504192939 | 28 | 212 | 11.3 | 22.5 | 0.00 | 0.00 | 0.00 | 63 | 1012.8 |
| 20260504192436 | 27 | 139 | 11.3 | 25.7 | 0.00 | 0.00 | 0.00 | 62 | 1012.9 |
| 20260504191908 | 27 | 203 | 11.3 | 25.7 | 0.00 | 0.00 | 0.00 | 62 | 1012.9 |
| 20260504191405 | 27 | 210 | 9.7 | 22.5 | 0.00 | 0.00 | 0.00 | 62 | 1013.0 |
| 20260504190838 | 27 | 195 | 8.0 | 20.9 | 0.00 | 0.00 | 0.00 | 62 | 1013.1 |
| 20260504190334 | 27 | 158 | 8.0 | 20.9 | 0.00 | 0.00 | 0.00 | 62 | 1013.2 |
| 20260504185832 | 27 | 185 | 8.0 | 16.1 | 0.00 | 0.00 | 0.00 | 61 | 1013.2 |
| 20260504185305 | 27 | 204 | 8.0 | 16.1 | 0.00 | 0.00 | 0.00 | 62 | 1013.2 |
| 20260504184802 | 27 | 133 | 9.7 | 19.3 | 0.00 | 0.00 | 0.00 | 63 | 1013.3 |
| 20260504184235 | 27 | 212 | 9.7 | 19.3 | 0.00 | 0.00 | 0.00 | 62 | 1013.4 |
| 20260504183710 | 28 | 197 | 9.7 | 29.0 | 0.00 | 0.00 | 0.00 | 62 | 1013.3 |
| 20260504183148 | 27 | 196 | 8.0 | 20.9 | 0.00 | 0.00 | 0.00 | 63 | 1013.1 |
| 20260504183142 | 27 | 177 | 9.7 | 29.0 | 0.00 | 0.00 | 0.00 | 63 | 1013.2 |
| 20260504182139 | 26 | 185 | 12.9 | 27.4 | 0.00 | 0.00 | 0.00 | 64 | 1013.5 |
| 20260504182134 | 26 | 131 | 11.3 | 27.4 | 0.00 | 0.00 | 0.00 | 64 | 1013.3 |
| 20260504181104 | 27 | 197 | 11.3 | 24.1 | 0.00 | 0.00 | 0.00 | 63 | 1013.6 |
| 20260504180831 | 26 | 118 | 11.3 | 22.5 | 0.00 | 0.00 | 0.00 | 63 | 1013.7 |
| 20260504180330 | 26 | 247 | 12.9 | 22.5 | 0.00 | 0.00 | 0.00 | 64 | 1013.9 |
| 20260504175531 | 26 | 220 | 12.9 | 22.5 | 0.00 | 0.00 | 0.00 | 63 | 1013.9 |
| 20260504175026 | 26 | 192 | 11.3 | 24.1 | 0.00 | 0.00 | 0.00 | 63 | 1013.8 |
| 20260504174523 | 26 | 177 | 11.3 | 24.1 | 0.00 | 0.00 | 0.00 | 63 | 1014.1 |
| 20260504173958 | 26 | 215 | 11.3 | 25.7 | 0.00 | 0.00 | 0.00 | 63 | 1014.1 |
| 20260504173430 | 26 | 189 | 11.3 | 25.7 | 0.00 | 0.00 | 0.00 | 64 | 1013.9 |
| 20260504173158 | 26 | 108 | 9.7 | 22.5 | 0.00 | 0.00 | 0.00 | 64 | 1014.1 |
| 20260504172630 | 26 | 204 | 9.7 | 19.3 | 0.00 | 0.00 | 0.00 | 64 | 1014.3 |
| 20260504171858 | 26 | 214 | 11.3 | 25.7 | 0.00 | 0.00 | 0.00 | 64 | 1014.5 |